{"data":{"norad_id":59907,"intl_designator":"2024-100Y","name":"STARLINK-31920","alt_names":[],"object_type":"PAYLOAD","status":"ACTIVE","operator":null,"country":"US","launch_date":"2024-05-28","launch_site_code":"AFETR","launch_vehicle":null,"mission":null,"orbit_class":"UNKNOWN","rcs_meters":null,"size_class":null,"mass_kg":null,"dimensions":null,"purposes":["comms"],"wikipedia_slug":null,"has_3d_model":false,"image_url":null,"decayed_at":null,"tle_current":{"epoch":"2026-09-20T14:38:52.404864Z","epoch_age_seconds":164907,"freshness":"FRESH","line1":"1 59907U 24100Y   26263.61032876  .00100230  00000+0  61582-3 0  9999","line2":"2 59907  42.9852  23.3233 0028167 344.9966  15.0066 15.75626324131883","mean_motion":15.75626324,"eccentricity":0.0028167,"inclination_deg":42.9852,"raan_deg":23.3233,"arg_perigee_deg":344.9966,"mean_anomaly_deg":15.0066,"bstar":0.00061582,"rev_number":13188,"period_min":91.392227843992,"perigee_km":323.91849147208,"apogee_km":361.78049678811,"semimajor_km":6720.9864941301,"source":"CELESTRAK","updated_at":"2026-09-22T09:00:49.110301Z"}}}